CW2749 Weather Reports


Display with metric or nautical units.
time (UTC)temp
F
wind
direction
speed
MPH
gust
MPH
rain 1hr
in
rain 24hr
in
rain mn
in
humidity
%
barometer
mb
20260906211404 83 121 13.0 17.0 0.00 0.00 0.00 39 814.7
20260906210904 83 147 13.0 17.0 0.00 0.00 0.00 37 814.6
20260906205904 83 143 10.0 20.0 0.00 0.00 0.00 37 814.9
20260906205404 83 172 10.0 20.0 0.00 0.00 0.00 39 814.7
20260906204903 83 148 11.0 20.0 0.00 0.00 0.00 37 814.8
20260906204404 84 136 10.0 17.0 0.00 0.00 0.00 36 814.9
20260906203904 84 170 9.0 16.0 0.00 0.00 0.00 36 815.0
20260906203403 83 124 8.0 16.0 0.00 0.00 0.00 39 815.1
20260906202904 83 131 11.0 16.0 0.00 0.00 0.00 38 815.1
20260906202403 82 156 5.0 16.0 0.00 0.00 0.00 37 815.1
20260906200404 82 137 14.0 17.0 0.00 0.00 0.00 39 815.3
20260906195403 82 163 12.0 15.0 0.00 0.00 0.00 39 815.4
20260906194904 82 147 8.0 17.0 0.00 0.00 0.00 40 815.4
20260906194404 81 136 10.0 17.0 0.00 0.00 0.00 40 815.3
20260906193904 81 120 14.0 17.0 0.00 0.00 0.00 40 815.3
20260906193404 81 131 9.0 15.0 0.00 0.00 0.00 41 815.4
20260906192903 81 165 12.0 16.0 0.00 0.00 0.00 40 815.6
20260906191904 80 122 12.0 17.0 0.00 0.00 0.00 42 816.0
20260906191403 80 153 12.0 17.0 0.00 0.00 0.00 44 815.8
20260906190904 81 148 10.0 14.0 0.00 0.00 0.00 42 816.1
20260906190403 80 146 10.0 14.0 0.00 0.00 0.00 43 816.0
20260906185404 80 149 7.0 16.0 0.00 0.00 0.00 45 816.1
20260906184904 80 120 8.0 16.0 0.00 0.00 0.00 45 816.1
20260906183903 80 123 8.0 15.0 0.00 0.00 0.00 44 816.5
20260906183403 80 165 9.0 14.0 0.00 0.00 0.00 44 816.4
20260906182904 79 149 4.0 14.0 0.00 0.00 0.00 43 816.5
20260906182403 79 130 9.0 14.0 0.00 0.00 0.00 43 816.5
20260906181903 79 184 4.0 14.0 0.00 0.00 0.00 43 816.6
20260906181404 79 124 7.0 13.0 0.00 0.00 0.00 44 816.5
20260906180904 79 137 7.0 13.0 0.00 0.00 0.00 44 816.6
20260906180403 79 159 9.0 13.0 0.00 0.00 0.00 45 816.8
20260906175904 79 192 6.0 14.0 0.00 0.00 0.00 45 816.6
20260906175404 79 107 7.0 14.0 0.00 0.00 0.00 46 816.8
20260906174903 79 151 10.0 14.0 0.00 0.00 0.00 46 816.9
20260906174404 78 114 6.0 12.0 0.00 0.00 0.00 44 816.9
20260906173903 79 123 6.0 12.0 0.00 0.00 0.00 44 817.0
20260906173404 79 121 4.0 9.0 0.00 0.00 0.00 44 817.0
20260906172904 78 134 3.0 6.0 0.00 0.00 0.00 45 817.0
20260906172403 77 313 1.0 8.0 0.00 0.00 0.00 46 817.2
20260906171404 76 241 6.0 10.0 0.00 0.00 0.00 48 817.3
20260906170904 75 200 4.0 10.0 0.00 0.00 0.00 51 817.4
20260906170404 75 199 6.0 10.0 0.00 0.00 0.00 50 817.5
20260906165904 74 58 2.0 10.0 0.00 0.00 0.00 52 817.3
20260906165404 73 184 3.0 12.0 0.00 0.00 0.00 54 817.5
20260906164904 72 181 8.0 12.0 0.00 0.00 0.00 56 817.4
20260906164404 72 205 7.0 12.0 0.00 0.00 0.00 58 817.5
20260906163903 71 193 8.0 13.0 0.00 0.00 0.00 61 817.4
20260906163403 71 208 7.0 13.0 0.00 0.00 0.00 63 817.4
20260906162903 70 203 9.0 14.0 0.00 0.00 0.00 63 817.5
20260906162403 70 206 9.0 14.0 0.00 0.00 0.00 62 817.6
20260906161903 70 196 10.0 14.0 0.00 0.00 0.00 63 817.6
20260906161403 70 187 11.0 15.0 0.00 0.00 0.00 65 817.5
20260906160903 70 179 9.0 15.0 0.00 0.00 0.00 65 817.6
20260906160403 70 221 7.0 15.0 0.00 0.00 0.00 65 817.6
20260906154903 69 164 9.0 15.0 0.00 0.00 0.00 67 817.6
20260906154404 69 183 7.0 15.0 0.00 0.00 0.00 67 817.7
20260906153904 69 197 9.0 18.0 0.00 0.00 0.00 68 831.0
20260906153404 68 178 11.0 18.0 0.00 0.00 0.00 68 1024.1
20260906152904 68 189 12.0 18.0 0.00 0.00 0.00 68 1024.0
20260906151904 68 166 12.0 16.0 0.00 0.00 0.00 68 1023.9
20260906150903 67 180 13.0 16.0 0.00 0.00 0.00 70 1024.1
20260906150403 67 189 13.0 17.0 0.00 0.00 0.00 70 1024.0
20260906145903 66 198 12.0 17.0 0.00 0.00 0.00 71 1023.7
20260906145403 66 198 12.0 16.0 0.00 0.00 0.00 72 1023.5
20260906144904 66 213 12.0 16.0 0.00 0.00 0.00 72 1023.6
20260906144403 66 216 11.0 15.0 0.00 0.00 0.00 72 1023.2
20260906143904 65 204 12.0 15.0 0.00 0.00 0.00 72 1023.4
20260906143404 65 210 12.0 15.0 0.00 0.00 0.00 72 1023.2
20260906142904 65 205 10.0 15.0 0.00 0.00 0.00 72 1023.1
20260906142404 65 220 9.0 15.0 0.00 0.00 0.00 74 1023.5
20260906141904 65 212 9.0 16.0 0.00 0.00 0.00 74 1023.6
20260906141403 65 207 10.0 16.0 0.00 0.00 0.00 74 1023.5
20260906140903 65 204 10.0 16.0 0.00 0.00 0.00 75 1023.5
20260906140403 64 204 12.0 15.0 0.00 0.00 0.00 75 1023.2
20260906135403 64 219 11.0 13.0 0.00 0.00 0.00 75 1023.2
20260906134903 63 228 9.0 13.0 0.00 0.00 0.00 77 1023.4
20260906134404 63 224 10.0 13.0 0.00 0.00 0.00 78 1023.1
20260906133904 62 212 9.0 12.0 0.00 0.00 0.00 78 1023.3
20260906132904 61 214 9.0 13.0 0.00 0.00 0.00 79 1023.2
20260906132404 61 210 7.0 13.0 0.00 0.00 0.00 80 1023.1
20260906131904 61 227 9.0 13.0 0.00 0.00 0.00 80 1023.1
20260906130903 60 219 9.0 15.0 0.00 0.00 0.00 82 1022.9
20260906130403 60 217 11.0 15.0 0.00 0.00 0.00 82 1022.9
20260906125903 60 209 12.0 15.0 0.00 0.00 0.00 83 1022.7
20260906125403 60 219 10.0 15.0 0.00 0.00 0.00 82 1022.4
20260906124404 60 225 11.0 14.0 0.00 0.00 0.00 85 1022.6
20260906123904 60 236 10.0 13.0 0.00 0.00 0.00 84 1022.5
20260906122904 60 226 9.0 14.0 0.00 0.00 0.00 83 1022.3
20260906122404 60 219 10.0 13.0 0.00 0.00 0.00 82 1022.0
20260906121904 60 219 12.0 13.0 0.00 0.00 0.00 82 1022.0
20260906121404 60 226 8.0 13.0 0.00 0.00 0.00 82 1022.0
20260906120904 60 229 10.0 13.0 0.00 0.00 0.00 82 1021.9
20260906120404 60 235 7.0 13.0 0.00 0.00 0.00 82 1021.8
20260906115904 60 231 9.0 13.0 0.00 0.00 0.00 83 1021.9
20260906115404 60 236 9.0 13.0 0.00 0.00 0.00 83 1021.6
20260906114404 61 243 10.0 14.0 0.00 0.00 0.00 82 1021.6
20260906113904 62 235 9.0 14.0 0.00 0.00 0.00 81 1021.4
20260906112404 62 218 12.0 15.0 0.00 0.00 0.00 80 1021.3
20260906111904 62 213 12.0 15.0 0.00 0.00 0.00 80 1021.2
20260906111404 62 220 11.0 14.0 0.00 0.00 0.00 80 1021.1
20260906110903 62 213 9.0 14.0 0.00 0.00 0.00 80 1021.2
20260906105404 63 206 10.0 16.0 0.00 0.00 0.00 79 1021.7
20260906104403 63 202 12.0 15.0 0.00 0.00 0.00 79 1021.6
20260906103904 63 211 10.0 13.0 0.00 0.00 0.00 80 1021.5
20260906103403 63 221 9.0 12.0 0.00 0.00 0.00 80 1021.4
20260906102403 63 220 6.0 13.0 0.00 0.00 0.00 80 1021.3
20260906101903 63 208 9.0 13.0 0.00 0.00 0.00 80 1021.2
20260906101403 63 220 9.0 13.0 0.00 0.00 0.00 80 1021.4
20260906100903 63 232 9.0 13.0 0.00 0.00 0.00 79 1021.4
20260906095904 62 237 8.0 10.0 0.00 0.00 0.00 79 1021.4
20260906094904 62 237 8.0 10.0 0.00 0.00 0.00 77 1021.3
20260906093904 62 235 7.0 9.0 0.00 0.00 0.00 77 1021.2
20260906093404 62 234 7.0 9.0 0.00 0.00 0.00 75 1021.0
20260906092904 61 221 6.0 9.0 0.00 0.00 0.00 75 1021.1
20260906092404 61 235 6.0 9.0 0.00 0.00 0.00 74 1021.1
20260906091904 61 234 6.0 9.0 0.00 0.00 0.00 74 1021.1
20260906091403 61 230 7.0 9.0 0.00 0.00 0.00 74 1021.0
20260906090903 62 216 8.0 9.0 0.00 0.00 0.00 74 1020.9
20260906090403 62 211 7.0 9.0 0.00 0.00 0.00 75 1020.7
20260906085903 61 239 7.0 9.0 0.00 0.00 0.00 75 1020.9
20260906085404 61 250 7.0 8.0 0.00 0.00 0.00 75 1021.0
20260906083903 61 255 5.0 10.0 0.00 0.00 0.00 75 1021.3
20260906083403 61 247 5.0 10.0 0.00 0.00 0.00 74 1021.3
20260906082903 61 233 7.0 10.0 0.00 0.00 0.00 74 1021.4
20260906082403 61 248 9.0 10.0 0.00 0.00 0.00 74 1021.7
20260906081904 61 234 7.0 9.0 0.00 0.00 0.00 75 1021.8
20260906080904 61 260 5.0 9.0 0.00 0.00 0.00 74 1021.6
20260906080404 61 275 8.0 10.0 0.00 0.00 0.00 74 1021.3
20260906075904 61 266 6.0 12.0 0.00 0.00 0.00 74 1021.7
20260906075404 61 264 9.0 13.0 0.00 0.00 0.00 74 1021.7
20260906073904 62 268 9.0 12.0 0.00 0.00 0.00 74 1021.6
20260906073404 62 251 8.0 10.0 0.00 0.00 0.00 75 1021.4
20260906072903 63 256 8.0 10.0 0.00 0.00 0.00 75 1021.5
20260906072403 63 260 8.0 10.0 0.00 0.00 0.00 76 1021.3
20260906070903 63 277 7.0 10.0 0.00 0.00 0.00 76 1021.3
20260906070403 63 269 6.0 9.0 0.00 0.00 0.00 76 1021.2
20260906065904 63 269 7.0 9.0 0.00 0.00 0.00 77 1021.1
20260906065404 63 290 9.0 9.0 0.00 0.00 0.00 78 1021.2
20260906064904 63 294 6.0 7.0 0.00 0.00 0.00 77 1021.3
20260906064404 63 297 5.0 7.0 0.00 0.00 0.00 76 1021.2
20260906063903 63 316 5.0 7.0 0.00 0.00 0.00 77 1021.3
20260906063404 64 297 6.0 7.0 0.00 0.00 0.00 77 1021.3
20260906062904 63 273 6.0 6.0 0.00 0.00 0.00 77 1021.1
20260906062403 63 261 5.0 6.0 0.00 0.00 0.00 77 1021.2
20260906061903 63 251 2.0 3.0 0.00 0.00 0.00 78 1021.4
20260906061403 63 241 2.0 5.0 0.00 0.00 0.00 79 1021.5
20260906060903 63 277 2.0 5.0 0.00 0.00 0.00 79 1021.5
20260906060403 63 210 3.0 5.0 0.00 0.00 0.00 80 1021.4
20260906055904 63 184 2.0 3.0 0.00 0.00 0.00 80 1021.4
20260906054904 62 216 2.0 2.0 0.00 0.00 0.00 82 1021.3
20260906053404 62 89 0.0 6.0 0.00 0.00 0.00 82 1021.5
20260906052904 62 150 1.0 6.0 0.00 0.00 0.00 82 1021.6
20260906052404 62 90 3.0 6.0 0.00 0.00 0.00 82 1021.5
20260906051904 63 111 3.0 8.0 0.00 0.00 0.00 81 1021.6
20260906050403 63 89 5.0 16.0 0.00 0.00 0.00 79 1021.1
20260906045903 64 92 9.0 16.0 0.00 0.00 0.00 78 1021.4
20260906045403 64 88 10.0 16.0 0.00 0.00 0.00 77 1021.1
20260906044903 64 97 10.0 13.0 0.00 0.00 0.00 76 1021.1
20260906044403 64 94 7.0 10.0 0.00 0.00 0.00 76 1021.1
20260906043403 65 73 6.0 14.0 0.00 0.00 0.00 75 1021.5
20260906042903 65 87 9.0 14.0 0.00 0.00 0.00 75 1021.3
20260906042403 65 97 7.0 14.0 0.00 0.00 0.00 73 1021.6
20260906041404 66 97 11.0 14.0 0.00 0.00 0.00 71 1021.2
20260906040404 67 87 12.0 15.0 0.00 0.00 0.00 67 1021.4
20260906035903 67 124 11.0 15.0 0.00 0.00 0.00 67 1020.9
20260906035403 68 108 13.0 15.0 0.00 0.00 0.00 65 1021.0
20260906034904 68 101 12.0 14.0 0.00 0.00 0.00 62 1020.9
20260906033904 68 80 10.0 16.0 0.00 0.00 0.00 57 1020.7
20260906032904 69 43 12.0 16.0 0.00 0.00 0.00 58 1020.4
20260906032404 69 5 7.0 9.0 0.00 0.00 0.00 57 1020.2
20260906031904 70 352 5.0 10.0 0.00 0.00 0.00 57 1020.0
20260906031403 70 13 6.0 10.0 0.00 0.00 0.00 54 1020.1
20260906030403 72 31 6.0 8.0 0.00 0.00 0.00 49 1019.6
20260906025903 72 14 6.0 10.0 0.00 0.00 0.00 46 1019.9
20260906025403 73 358 3.0 10.0 0.00 0.00 0.00 40 1019.5
20260906024903 73 19 7.0 10.0 0.00 0.00 0.00 39 1019.6
20260906024403 74 18 5.0 8.0 0.00 0.00 0.00 38 1019.5
20260906023903 74 102 3.0 10.0 0.00 0.00 0.00 37 1019.6
20260906023404 75 18 3.0 16.0 0.00 0.00 0.00 35 1019.8
20260906022904 75 17 10.0 18.0 0.00 0.00 0.00 35 1019.7
20260906022404 76 5 12.0 18.0 0.00 0.00 0.00 33 1019.7
20260906021904 75 347 10.0 18.0 0.00 0.00 0.00 34 1019.8
20260906021404 75 331 8.0 9.0 0.00 0.00 0.00 33 1019.8
20260906020904 75 335 8.0 10.0 0.00 0.00 0.00 33 1019.8
20260906015903 76 326 7.0 12.0 0.00 0.00 0.00 31 1019.6
20260906014903 76 329 8.0 10.0 0.00 0.00 0.00 31 1019.8
20260906013904 78 337 8.0 13.0 0.00 0.00 0.00 29 1019.5
20260906013404 78 349 10.0 13.0 0.00 0.00 0.00 29 1019.5
20260906012904 79 342 11.0 13.0 0.00 0.00 0.00 29 1019.3
20260906012404 79 325 10.0 13.0 0.00 0.00 0.00 28 1019.5
20260906011904 79 324 10.0 12.0 0.00 0.00 0.00 28 1019.5
20260906011404 80 315 9.0 12.0 0.00 0.00 0.00 28 1019.6
20260906010904 82 302 6.0 9.0 0.00 0.00 0.00 27 1019.4
20260906010403 82 347 5.0 5.0 0.00 0.00 0.00 26 1019.7
20260906005903 83 349 5.0 5.0 0.00 0.00 0.00 26 1019.5
20260906005403 83 358 3.0 6.0 0.00 0.00 0.00 26 1019.9
20260906004903 83 344 4.0 7.0 0.00 0.00 0.00 25 1019.7
20260906004403 83 346 5.0 7.0 0.00 0.00 0.00 25 1019.8
20260906002904 84 338 5.0 9.0 0.00 0.00 0.00 24 1019.4
20260906001404 84 349 7.0 9.0 0.00 0.00 0.00 24 1019.9
20260906000904 84 338 3.0 8.0 0.00 0.00 0.00 24 1020.0
20260906000404 84 345 6.0 8.0 0.00 0.00 0.00 24 1019.8
20260905235904 85 326 3.0 6.0 0.00 0.00 0.00 24 1019.7
20260905235404 85 18 5.0 8.0 0.00 0.00 0.00 23 1019.5
20260905234904 85 352 4.0 8.0 0.00 0.00 0.00 24 1019.5
20260905234404 85 356 7.0 10.0 0.00 0.00 0.00 23 1019.4
20260905233903 85 39 5.0 10.0 0.00 0.00 0.00 24 1019.1
20260905233403 85 19 7.0 10.0 0.00 0.00 0.00 24 1019.4
20260905232903 85 53 4.0 10.0 0.00 0.00 0.00 24 1020.0
20260905232404 85 37 3.0 10.0 0.00 0.00 0.00 24 1020.0
20260905231903 85 154 4.0 10.0 0.00 0.00 0.00 24 1019.8
20260905230903 85 57 5.0 13.0 0.00 0.00 0.00 24 1019.7
20260905230403 85 48 9.0 13.0 0.00 0.00 0.00 24 1019.4
20260905225903 84 53 4.0 10.0 0.00 0.00 0.00 25 1019.5
20260905225403 84 52 3.0 12.0 0.00 0.00 0.00 25 1019.7
20260905224903 84 45 8.0 12.0 0.00 0.00 0.00 25 1019.6
20260905224403 84 68 7.0 13.0 0.00 0.00 0.00 25 1019.4
20260905223903 84 86 9.0 13.0 0.00 0.00 0.00 25 1019.2
20260905223403 84 49 9.0 10.0 0.00 0.00 0.00 25 1019.6
20260905222403 84 6 5.0 8.0 0.00 0.00 0.00 23 1019.6
20260905221403 84 63 5.0 12.0 0.00 0.00 0.00 23 1019.2
20260905220903 84 96 5.0 15.0 0.00 0.00 0.00 23 1019.5
20260905220403 85 48 4.0 15.0 0.00 0.00 0.00 23 1019.4
20260905215403 85 108 7.0 21.0 0.00 0.00 0.00 24 1019.4
20260905214903 84 65 9.0 21.0 0.00 0.00 0.00 24 1019.5
20260905214403 85 86 13.0 21.0 0.00 0.00 0.00 24 1019.9
20260905213903 85 74 9.0 18.0 0.00 0.00 0.00 24 1020.0
20260905213403 84 56 11.0 18.0 0.00 0.00 0.00 23 1019.9
20260905212904 84 45 10.0 23.0 0.00 0.00 0.00 23 1020.1
20260905212404 84 76 11.0 23.0 0.00 0.00 0.00 23 1020.1